Miscellaneous Local Product
Issued by NWS North Platte, NE

Home | Current Version | Previous Version | Graphics & Text | Print | Product List | Glossary On
Versions: 1 2 3 4 5 6 7 8 9 10 11 12 13 14 15 16 17 18 19 20 21 22 23 24 25 26 27 28 29 30 31 32 33 34 35 36 37 38 39 40 41 42 43 44 45 46 47 48 49 50
126
AXUS43 KLBF 260110
MISLBF


WESTERN AND NORTH CENTRAL NEBRASKA HOURLY WEATHER ROUNDUP
NATIONAL WEATHER SERVICE NORTH PLATTE NE
800 PM CDT SUN JUN 25 2017

NOTE: "FAIR" INDICATES FEW OR NO CLOUDS BELOW 12,000 FEET WITH NO
SIGNIFICANT WEATHER AND/OR OBSTRUCTIONS TO VISIBILITY.

NOTE: STATIONS NOT REPORTING VARIABLES SUCH AS SKY/WEATHER OR
PRESSURE ARE PROVIDED BY RAWS AND APRS NETWORKS AND ARE NOT UNDER
NATIONAL WEATHER SERVICE QUALITY CONTROL.

...OBSERVATIONS IN AND NEAR THE EASTERN PANHANDLE OF NEBRASKA...

CITY           SKY/WX    TMP DP  RH WIND       PRES   REMARKS
PINE RIDGE     CLOUDY    76  46  34 E6        30.18F
GORDON         FAIR      70  48  45 E5        30.19F
CHADRON        SUNNY     77  40  26 NW5       30.16F
ALLIANCE       MOSUNNY   71  44  37 S6        30.21F
SIDNEY         SUNNY     68  51  54 S13       30.28S
CRESCENT LAKE    N/A     72  43  34 S7G15       N/A
$$

...OBSERVATIONS IN NORTHERN NEBRASKA AND FAR SOUTHERN SOUTH DAKOTA...

CITY           SKY/WX    TMP DP  RH WIND       PRES   REMARKS
WINNER         FAIR      79  37  22 S10       30.15F
VALENTINE      CLOUDY    75  43  31 E6        30.17F
THEDFORD       MOSUNNY   77  42  29 S12       30.20S
AINSWORTH      PTSUNNY   74  42  31 SE7       30.18F
O`NEILL        SUNNY     72  41  32 S5        30.19F
ORD            SUNNY     75  36  24 S10       30.19F
BROKEN BOW     SUNNY     73  43  33 S13G25    30.21F
VALENTINE NWR    N/A     77  37  24 SE8         N/A
HALSEY           N/A     75  39  27 S6          N/A
BUTTE            N/A     71  41  34 SE9         N/A
CHAMBERS         N/A     75  42  31 CALM        N/A
EWING            N/A     74  46  36 CALM        N/A
$$

...OBSERVATIONS IN SOUTHWEST NEBRASKA AND FAR NORTHEAST COLORADO...

CITY           SKY/WX    TMP DP  RH WIND       PRES   REMARKS
WRAY           CLOUDY    64  54  68 SE7       30.28R
IMPERIAL       CLOUDY    66  52  60 S9        30.28S
OGALLALA       SUNNY     72  50  46 S14       30.24F
NORTH PLATTE   SUNNY     73  46  38 S13G22    30.22F
MCCOOK         CLOUDY    67  55  65 SE6       30.26S
LEXINGTON      SUNNY     72  48  42 S12       30.24F
STAPLETON        N/A     72  47  40 CALM        N/A
GOTHENBURG       N/A     73  45  37 SE7         N/A
CALLAWAY         N/A     74  50  42 S12         N/A
$$

...OBSERVATIONS IN CENTRAL LINCOLN COUNTY AREA...

CITY           SKY/WX    TMP DP  RH WIND       PRES   REMARKS
N.P. AIRPORT   SUNNY     73  46  38 S13G22    30.22F
N.P. DOWNTOWN    N/A     74  49  40 S3G15       N/A
N.P. SOUTHEAST   N/A     72  47  41 S8G15       N/A
N.P. HILLCREST   N/A     72  47  40 SW12        N/A
$$

...SOME OBSERVATIONS FROM AROUND THE REGION...

CITY           SKY/WX    TMP DP  RH WIND       PRES   REMARKS
DENVER         MOSUNNY   70  53  54 NE16      30.29R
LIMON          SUNNY     66  55  67 SE21      30.28S
ASPEN          SUNNY     79  21  11 N12       30.32S
LARAMIE        SUNNY     69  44  40 E15       30.36R
CASPER         SUNNY     78  31  17 N7        30.26S
CHEYENNE       SUNNY     67  47  48 SE8       30.33S
SCOTTSBLUFF    SUNNY     76  44  32 SE12      30.21F
GRAND ISLAND   MOSUNNY   74  42  31 CALM      30.23F
OMAHA          PTCLDY    74  44  34 N5        30.21F
SIOUX FALLS    MOSUNNY   70  48  45 N6        30.18F
PIERRE         SUNNY     73  41  31 NE22      30.12S
RAPID CITY     PTSUNNY   78  30  17 N18G28    30.18F
BISMARCK       MOSUNNY   69  43  38 NE12G21   30.21R
KANSAS CITY    PTCLDY    65  52  62 W8        30.23F
HILL CITY      CLOUDY    62  60  93 E7        30.26R
WICHITA        CLOUDY    68  61  78 E12       30.23S
DODGE CITY     CLOUDY    68  57  68 E9        30.23F
OKLAHOMA CITY  PTCLDY    82  48  30 SE8       30.17S
DALLAS         PTCLDY    84  62  47 E7        30.10S
AMARILLO       CLOUDY    75  63  66 SE20      30.19S
$$




USA.gov is the U.S. government's official web portal to all federal, state and local government web resources and services.